Tracking 19176 objects as of 27-May-2018
HD Live streaming from Space Station
objects crossing your sky now

SL-12 DEB

Track SL-12 DEB now!
10-day predictions


NORAD ID: 39798
Int'l Code: 2008-046K
Perigee: 630.3 km
Apogee: 18,925.0 km
Inclination: 64.8 °
Period: 340.4 minutes
Semi major axis: 16148 km
RCS: 0.0315 m2 (small)
Launch date: September 25, 2008
Source: Commonwealth of Independent States (former USSR) (CIS)
Launch site: TYURATAM MISSILE AND SPACE COMPLEX (TTMTR)

Note: This is SATELLITE DEBRIS
aabbcc
Your satellite tracking list
Your tracking list is empty




NASA's NSSDC Master Catalog

Two Line Element Set (TLE):
1 39798U 08046K   18146.81904394 -.00000016  00000-0  33213-3 0  9995
2 39798  64.7663   8.7982 5664485  38.7801 350.7248  4.23057674 61698
Source of the keplerian elements: AFSPC